Regional Weather Roundup
Issued by NWS

Home | Current Version | Previous Version | Text Only | Print | Product List | Glossary Off
Versions: 1 2 3 4 5 6 7 8 9 10 11 12 13 14 15 16 17 18 19 20 21 22 23 24 25 26 27 28 29 30 31 32 33 34 35 36 37 38 39 40 41 42 43 44 45 46 47 48 49 50

000
ASUS43 KIND 210609
RWRIN

WEATHER ROUNDUP FOR INDIANA
NATIONAL WEATHER SERVICE INDIANAPOLIS IN
200 AM EDT SUN SEP 21 2014

NOTE: "FAIR" INDICATES FEW OR NO CLOUDS BELOW 12,000 FEET WITH NO
SIGNIFICANT WEATHER AND/OR OBSTRUCTIONS TO VISIBILITY.

* - STATION DOES NOT REPORT WEATHER SUCH AS PRECIPITATION OR FOG.

+ - STATION NOT QUALITY CONTROLLED BY THE NATIONAL WEATHER SERVICE.
    USE DATA WITH CAUTION...ESPECIALLY DEWPOINT AND RELATIVE
    HUMIDITY OBSERVATIONS.

INZ001>003-010>013-019-020-210700-
NORTHWEST INDIANA

CITY           SKY/WX    TMP DP  RH WIND       PRES   REMARKS
GARY /AIRPORT/ CLEAR     71  68  90 SW7       29.71F
KNOX *+        CLEAR     67  64  91 SW9       29.74F
LA PORTE +     PTCLDY    66  66 100 SW9       29.74F FOG
6HR MIN TEMP:  65; 6HR MAX TEMP:  66;

MICHIGAN CITY+ PTCLDY    66  66 100 SW10      29.71F
MONTICELLO +   MOCLDY    67  67  98 SW7       29.78F
RENSSELAER +   CLEAR     68  68 100 SW10G16   29.78S
VALPARAISO     PTCLDY    68  66  93 SW14      29.74F
6HR MIN TEMP:  66; 6HR MAX TEMP:  69; 6HR PCP:  0.02;


$$

LMZ046-743>745-210700-
SOUTHERN LAKE MICHIGAN

STATION/POSITION TIME  TEMP WIND        PRES
                       AIR  DIR/SP/G
                 (UTC) (F)  (DEG/KT/KT) (MB)
MICHIGAN CITY    0600   69  180/ 17/ 21   N/A

$$

INZ004-005-014>016-021>024-210700-
NORTH CENTRAL INDIANA

CITY           SKY/WX    TMP DP  RH WIND       PRES   REMARKS
GOSHEN         MOCLDY   N/A N/A N/A S12       29.73F
                                      6HR PCP:  0.01;

LOGANSPORT +   CLOUDY    68  64  88 SW8       29.80F
PERU/GRISSOM   CLOUDY    68  68 100 SW9       29.79F
6HR MIN TEMP:  64; 6HR MAX TEMP:  68; 6HR PCP:  0.42;

ROCHESTER +    CLOUDY    70  70 100 S8        29.77F
SOUTH BEND     CLOUDY    68  65  90 SW12      29.73F
6HR MIN TEMP:  66; 6HR MAX TEMP:  69; 6HR PCP: TRACE;

WARSAW +       CLOUDY    68  66  94 SW6       29.76F

$$

INZ006>009-017-018-025>027-210700-
NORTHEAST INDIANA

CITY           SKY/WX    TMP DP  RH WIND       PRES   REMARKS
ANGOLA *+      CLOUDY    66  57  72 SW9       29.75F
AUBURN +       RAIN      66  63  88 S6        29.78F
FORT WAYNE     CLOUDY    67  65  93 S12       29.79F
6HR MIN TEMP:  64; 6HR MAX TEMP:  67; 6HR PCP:  0.22;

HUNTINGTON +   RAIN      67  66  97 SW5       29.78F
6HR MIN TEMP:  64; 6HR MAX TEMP:  67; 6HR PCP:  0.06;


$$

INZ028-029-035-036-043>045-051>053-210700-
WEST CENTRAL INDIANA

CITY           SKY/WX    TMP DP  RH WIND       PRES   REMARKS
GREENCASTLE +  CLOUDY    70  66  88 S5        29.85F
LAFAYETTE      MOCLDY    68  67  96 W6        29.80F
6HR MIN TEMP:  65; 6HR MAX TEMP:  70; 6HR PCP:  1.53;

TERRE HAUTE    CLOUDY    73  66  78 SW9       29.85F
6HR MIN TEMP:  72; 6HR MAX TEMP:  77; 6HR PCP: TRACE;


$$

INZ030>032-037>040-046>048-054>057-064-065-210700-
CENTRAL INDIANA

CITY           SKY/WX    TMP DP  RH WIND       PRES   REMARKS
CP ATTERBURY + MOCLDY    73  64  73 SW14G21   29.87F
FRANKFORT +    CLOUDY   N/A N/A N/A SW7       29.83F THUNDER
INDIANAPOLIS   CLOUDY    72  66  81 SW17      29.83F
6HR MIN TEMP:  70; 6HR MAX TEMP:  74; 6HR PCP:  0.02;

-EAGLE CREEK   CLOUDY    72  65  78 SW8       29.83F
6HR MIN TEMP:  70; 6HR MAX TEMP:  76; 6HR PCP:  0.08;

KOKOMO *+      CLOUDY    66  64  94 W10       29.81F THUNDER
MARION +       CLOUDY    65  65  98 SW7       29.80F
MT COMFORT *+  CLOUDY    70  66  88 SW10      29.84F
SHELBYVILLE    MOCLDY    71  65  81 S9        29.85F
6HR MIN TEMP:  71; 6HR MAX TEMP:  75; 6HR PCP: TRACE;

ZIONSVILLE +   CLOUDY    72  65  79 SW13      29.83S THUNDER
6HR MIN TEMP:  64; 6HR MAX TEMP:  72; 6HR PCP:  0.08;


$$

INZ033-034-041-042-049-050-058-059-210700-
EAST CENTRAL INDIANA

CITY           SKY/WX    TMP DP  RH WIND       PRES   REMARKS
MUNCIE         CLOUDY    70  65  84 SW10      29.81F
6HR MIN TEMP:  66; 6HR MAX TEMP:  76; 6HR PCP:  0.23;


$$

INZ060-061-067>069-081>083-085>088-210700-
SOUTHWEST INDIANA

CITY           SKY/WX    TMP DP  RH WIND       PRES   REMARKS
EVANSVILLE     CLEAR     71  66  84 SW7       29.93S
6HR MIN TEMP:  71; 6HR MAX TEMP:  78;

WASHINGTON +   MOCLDY    73  68  86 SW9       29.89F
6HR MIN TEMP:  70; 6HR MAX TEMP:  75;


$$

INZ062-063-066-070>080-084-089>092-210700-
SOUTH CENTRAL AND SOUTHEAST INDIANA

CITY           SKY/WX    TMP DP  RH WIND       PRES   REMARKS
BLOOMINGTON    CLOUDY    74  66  76 SW10G22   29.88F
6HR MIN TEMP:  69; 6HR MAX TEMP:  74;


$$



USA.gov is the U.S. government's official web portal to all federal, state and local government web resources and services.